SJ-11-02

Satellite information

Favourite Embed

Satellite Type and Status

PAYLOADIN ORBIT

Key statistics

Satellite SJ-11-02 at a glance.

Uptime

5204

Days in orbit

Revolutions

≈ 14.6

Per day

Orbit

SSO

Sun Synchronous Orbit

Inclination

98.3

Latest

Satellite identification and parameters

Extended collection of information and parameters for SJ-11-02.

Object identification

Identified? True

Debris? False

Object name: SJ-11-02

International designator: 2011-039A

Object number (NORAD): 37765

Object ID (CCSDS): 37765

Country: PEOPLES REPUBLIC OF CHINA (PRC)

Current information (Y/N): Y

RCS size: LARGE

Orbital parameters

Period: 98.355 minutes

Inclination: 98.2865 deg

SMA: 7058.15 km

Apoapsis: 686.589 km

Periapsis: 673.441 km

RAAN: 183.7703 deg

Eccentricy: 0.00093139

Argument of periapsis: 275.4361 deg

Mean anomaly: 95.2307 deg

Mean motion: 14.64085384 rev/day

Mean motion (dot): 0.00000824 rev/day2

B* drag term: 0.00016621805 1/REarth

Two-line elements (TLE)

Creation date: Oct. 27, 2025, 2:46 a.m.

Reference frame: TEME

Reference center: EARTH

Epoch: Oct. 26, 2025, 10:50 p.m. UTC

TLE line 0: 0 SJ-11-02

TLE line 1: 1 37765U 11039A 25299.95199544 .00000824 00000-0 16622-3 0 9999

TLE line 2: 2 37765 98.2865 183.7703 0009314 275.4361 95.2307 14.64085384759822

Live tracking on map

Real-time ground track for satellite SJ-11-02.

In-orbit conjunctions

There are no conjunctions computed for SJ-11-02, at the moment. Check back to stay up to date, as we update our databases every day.

Go to all conjunctions

Associated space launch

SJ-11-02 was lifted into orbit during the mission ‘Long March 2C | Shijian 10-02’, on board a Long March 2 space rocket.

The launch took place on July 29, 2011, 7:42 a.m. from Launch Area 4 (SLS-2 / 603).

For more information about the launch, click the button.

Launch to space Long March 2C | Shijian 10-02
Long March 2C | Shijian 10-02

Agency: N/A

Status: Launch Successful

Launch date: July 29, 2011, 7:42 a.m. UTC

Rocket: Long March 2

Launch pad: Launch Area 4 (SLS-2 / 603)

Location: Jiuquan Satellite Launch Center, People's Republic of China

...

Latest news about this satellite

There are no fresh news available about this satellite. Check back as we update our databases every day.


Newsletter sign-up

Weekly statistics, charts and insights to help you stay on top of the space industry.